Bloomington, IL

6:50 AM CDT on September 21, 2017 (GMT -0500)
Central Ill Regional

Weather History for KBMI - July, 2014

Change the Weather History Date:

Wednesday, July 2, 2014

  Actual Average Record
Temperature  
Mean Temperature 64 °F -  
Max Temperature 68 °F 87 °F 99 °F (2012)
Min Temperature 59 °F 58 °F 50 °F (2001)
Degree Days  
Heating Degree Days 2    
Growing Degree Days 14 (Base 50)    
Moisture  
Dew Point 56 °F    
Average Humidity 78    
Maximum Humidity 88    
Minimum Humidity 65    
Precipitation  
Precipitation 0.00 in - - ()
Sea Level Pressure  
Sea Level Pressure 29.97 in    
Wind  
Wind Speed 9 mph (WNW)    
Max Wind Speed 15 mph    
Max Gust Speed -    
Visibility 10 miles    
Events Rain    
Averages and records for this station are not official NWS values.
T = Trace of Precipitation, MM = Missing Value Source: NWS Daily Summary

Daily Weather History Graph

Daily Weather History Graph

Search for Another Location

Airport or City:

Trip Planner

Search our weather history database for the weather conditions in past years. The results will help you decide how hot, cold, wet, or windy it might be!

Date:

Astronomy

Jul. 02, 2014 Rise Set
Actual Time 5:29 AM CDT 8:29 PM CDT
Civil Twilight 4:56 AM CDT 9:02 PM CDT
Nautical Twilight 4:14 AM CDT 9:44 PM CDT
Astronomical Twilight 3:25 AM CDT 10:33 PM CDT
Moon 10:33 AM CDT (7/2) 11:21 PM CDT (7/2)
Length of Visible Light 16h 06m
Length of Day
15h 00m
Waxing Crescent, 24% of the Moon is Illuminated
Jul 2
Waxing Crescent
Jul 5
First Quarter
Jul 12
Full
Jul 18
Last Quarter
Jul 26
New

Hourly Weather History & Observations

Time (CDT) Temp. Dew Point Humidity Pressure Visibility Wind Dir Wind Speed Gust Speed Precip Events Conditions
12:56 AM 68.0 °F 63.0 °F 84% 29.84 in 10.0 mi West 9.2 mph - N/A   Scattered Clouds
1:56 AM 66.9 °F 61.9 °F 84% 29.85 in 10.0 mi West 8.1 mph - N/A   Clear
2:56 AM 64.9 °F 59.0 °F 81% 29.85 in 10.0 mi West 5.8 mph - N/A   Clear
3:56 AM 63.9 °F 59.0 °F 84% 29.86 in 10.0 mi West 8.1 mph - N/A   Mostly Cloudy
4:56 AM 63.9 °F 57.9 °F 81% 29.88 in 10.0 mi West 8.1 mph - N/A   Scattered Clouds
5:56 AM 61.9 °F 57.9 °F 87% 29.89 in 10.0 mi West 5.8 mph - N/A   Mostly Cloudy
6:56 AM 63.0 °F 56.8 °F 80% 29.91 in 10.0 mi WSW 8.1 mph - N/A   Mostly Cloudy
7:56 AM 64.9 °F 55.9 °F 73% 29.92 in 10.0 mi West 13.8 mph - N/A   Mostly Cloudy
8:56 AM 65.8 °F 54.0 °F 65% 29.93 in 10.0 mi NNW 12.7 mph - N/A   Mostly Cloudy
9:56 AM 65.8 °F 54.0 °F 65% 29.93 in 10.0 mi NW 9.2 mph - N/A   Mostly Cloudy
10:19 AM 64.4 °F 53.6 °F 68% 29.96 in 10.0 mi NNW 6.9 mph - N/A   Mostly Cloudy
10:22 AM 66.2 °F 55.4 °F 68% 29.96 in 10.0 mi NW 10.4 mph - N/A   Mostly Cloudy
10:56 AM 64.9 °F 54.9 °F 70% 29.96 in 10.0 mi NNW 6.9 mph - N/A   Overcast
11:56 AM 63.0 °F 54.9 °F 75% 29.97 in 10.0 mi WNW 4.6 mph - 0.00 in   Overcast
12:56 PM 63.0 °F 54.9 °F 75% 30.00 in 10.0 mi West 11.5 mph - 0.00 in Rain Light Rain
1:56 PM 61.9 °F 55.9 °F 81% 30.01 in 9.0 mi West 15.0 mph - 0.00 in Rain Light Rain
2:56 PM 63.9 °F 54.9 °F 72% 30.01 in 10.0 mi WSW 9.2 mph - 0.00 in   Overcast
3:56 PM 61.0 °F 54.0 °F 78% 30.01 in 8.0 mi West 8.1 mph - 0.00 in Rain Light Rain
4:56 PM 63.0 °F 55.9 °F 78% 30.01 in 10.0 mi West 10.4 mph - 0.00 in   Overcast
5:56 PM 63.9 °F 54.0 °F 70% 30.01 in 10.0 mi West 11.5 mph - N/A   Overcast
6:56 PM 61.9 °F 52.9 °F 72% 30.03 in 10.0 mi West 10.4 mph - N/A   Overcast
7:56 PM 61.9 °F 54.0 °F 75% 30.02 in 10.0 mi West 9.2 mph - N/A   Overcast
8:56 PM 59.9 °F 54.9 °F 83% 30.04 in 10.0 mi West 9.2 mph - N/A   Overcast
9:56 PM 59.9 °F 54.9 °F 83% 30.04 in 10.0 mi West 9.2 mph - N/A   Mostly Cloudy
10:40 PM 60.8 °F 55.4 °F 82% 30.05 in 10.0 mi WNW 10.4 mph - N/A   Mostly Cloudy
10:56 PM 59.9 °F 54.9 °F 83% 30.04 in 10.0 mi NW 10.4 mph - N/A   Overcast
11:35 PM 59.0 °F 55.4 °F 88% 30.06 in 10.0 mi NW 10.4 mph - N/A   Overcast
11:56 PM 59.0 °F 54.9 °F 86% 30.05 in 10.0 mi NW 9.2 mph - N/A   Overcast